Regional Weather Roundup
Issued by NWS

Current Version | Previous Version | Text Only | Print | Product List | Glossary On
Versions: 1 2 3 4 5 6 7 8 9 10 11 12 13 14 15 16 17 18 19 20 21 22 23 24 25 26 27
000
ASUS44 KBMX 312110
RWRAL

ALABAMA REGIONAL WEATHER ROUNDUP
NATIONAL WEATHER SERVICE BIRMINGHAM AL
400 PM CDT FRI OCT 31 2014

NOTE: "FAIR" INDICATES FEW OR NO CLOUDS BELOW 12,000 FEET
WITH NO SIGNIFICANT WEATHER AND/OR OBSTRUCTIONS TO VISIBILITY.

THE REMARK "TC" DENOTES TEMPERATURE IN DEGREES CELSIUS.

ALZ001>011-014-016>018-020-312200-
NORTH ALABAMA

CITY           SKY/WX    TMP DP  RH WIND       PRES   REMARKS
MUSCLE SHOALS  CLOUDY    53  42  66 N10G18    30.05R
HUNTSVILLE     CLOUDY    51  45  79 N14       30.01R
DECATUR        CLOUDY    52  43  71 N17G25    30.02R
HALEYVILLE     PTSUNNY   50  43  77 N16G28    30.06R
GADSDEN        CLOUDY    57  43  58 NW8       29.95R
$$

ALZ012-013-022-023-030>036-040>044-312200-
WEST CENTRAL ALABAMA

CITY           SKY/WX    TMP DP  RH WIND       PRES   REMARKS
TUSCALOOSA     MOSUNNY   67  47  48 NW13G20   29.97R
$$

ALZ015-024>027-033>036-040>044-312200-
CENTRAL ALABAMA

CITY           SKY/WX    TMP DP  RH WIND       PRES   REMARKS
BIRMINGHAM     PTSUNNY   62  41  46 NW12G22   29.98R
MONTGOMERY     PTSUNNY   70  44  39 NW12G22   29.91R
SHELBY CO ARPT PTSUNNY   66  45  46 NW8G16    29.95R
MAXWELL AFB    MOSUNNY   68  46  44 N12       29.91R
GREENVILLE     FAIR      71  44  37 W12G20    29.90S
$$

ALZ019-021-028-029-037-038-045>048-312200-
EAST CENTRAL ALABAMA

CITY           SKY/WX    TMP DP  RH WIND       PRES   REMARKS
ANNISTON       CLOUDY    60  42  51 VRB7G16   29.94R
ALEXANDER CITY PTSUNNY   64  37  36 N10G17    29.93R
AUBURN         CLOUDY    61  36  39 NW8       29.94R
$$

ALZ051>064-312200-
SOUTHWEST ALABAMA

CITY           SKY/WX    TMP DP  RH WIND       PRES   REMARKS
MOBILE         CLOUDY    73  44  35 W12G25    29.95R
BROOKLEY FIELD MOSUNNY   76  43  30 W9G24     29.94R
EVERGREEN      MOSUNNY   70  45  40 VRB6      29.92R
$$

ALZ049-050-065>069-312200-
SOUTHEAST ALABAMA

CITY           SKY/WX    TMP DP  RH WIND       PRES   REMARKS
DOTHAN         MOSUNNY   70  42  36 NW12      29.91S
OZARK          SUNNY     71  45  38 NW7       29.89R
TROY           PTSUNNY   71  44  37 W8        29.89S
EUFAULA        FAIR      69  43  38 NW6       29.87R
$$



USA.gov is the U.S. government's official web portal to all federal, state and local government web resources and services.